Location: Erfurt
(50.9688°N, 11.0193°E)
Time: 14:56:01
(UTC+02:00)

Envisat - Visible Passes

Search period start: 21 May 2018 00:00
Search period end: 31 May 2018 00:00
Orbit: 764 x 766 km, 98.2° (Epoch: 20 May)

Date Brightness Start Highest point End Pass type
(mag) Time Alt. Az. Time Alt. Az. Time Alt. Az.
22 May 5.6 22:00:21 10° WSW 22:03:19 15° W 22:06:18 10° NW visible
27 May 5.9 22:16:22 10° WSW 22:17:59 11° W 22:19:36 10° WNW visible
30 May 5.7 22:03:59 10° WSW 22:06:39 14° W 22:09:20 10° NW visible
